Saint Augustine, FL

2:45 PM EST on December 10, 2016 (GMT -0500)
Saint Augustine

Weather History for KSGJ - March, 2013

Change the Weather History Date:

Monday, March 25, 2013

  Actual Average Record
Temperature  
Mean Temperature 60 °F -  
Max Temperature 66 °F 71 °F 83 °F (1984)
Min Temperature 53 °F 54 °F 39 °F (1983)
Degree Days  
Heating Degree Days 6    
Growing Degree Days 10 (Base 50)    
Moisture  
Dew Point 38 °F    
Average Humidity 49    
Maximum Humidity 88    
Minimum Humidity 19    
Precipitation  
Precipitation 0.00 in - - ()
Sea Level Pressure  
Sea Level Pressure 29.84 in    
Wind  
Wind Speed 12 mph (WNW)    
Max Wind Speed 17 mph    
Max Gust Speed 26 mph    
Visibility 10 miles    
Events      
Averages and records for this station are not official NWS values.
T = Trace of Precipitation, MM = Missing Value Source: NWS Daily Summary

Daily Weather History Graph

Daily Weather History Graph

Search for Another Location

Airport or City:

Trip Planner

Search our weather history database for the weather conditions in past years. The results will help you decide how hot, cold, wet, or windy it might be!

Date:

Astronomy

Mar. 25, 2013 Rise Set
Actual Time 7:22 AM EDT 7:39 PM EDT
Civil Twilight 6:58 AM EDT 8:03 PM EDT
Nautical Twilight 6:31 AM EDT 8:31 PM EDT
Astronomical Twilight 6:02 AM EDT 9:00 PM EDT
Moon 6:13 PM EDT (3/25) 5:59 AM EDT (3/25)
Length of Visible Light 13h 04m
Length of Day
12h 17m
Waxing Gibbous, 96% of the Moon is Illuminated
Mar 25
Waxing Gibbous
Mar 27
Full
Apr 3
Last Quarter
Apr 10
New
Apr 18
First Quarter

Hourly Weather History & Observations

Time (EDT) Temp. Dew Point Humidity Pressure Visibility Wind Dir Wind Speed Gust Speed Precip Events Conditions
12:58 AM 66.9 °F 61.0 °F 81% 29.66 in 10.0 mi SW 15.0 mph 20.7 mph N/A   Clear
1:58 AM 64.9 °F 61.0 °F 87% 29.68 in 10.0 mi WSW 10.4 mph - N/A   Clear
2:58 AM 64.0 °F 60.1 °F 87% 29.69 in 10.0 mi West 10.4 mph - N/A   Clear
3:24 AM 64.4 °F 60.8 °F 88% 29.70 in 10.0 mi West 10.4 mph - N/A   Mostly Cloudy
3:46 AM 64.4 °F 60.8 °F 88% 29.70 in 10.0 mi West 9.2 mph - N/A   Scattered Clouds
3:58 AM 64.0 °F 60.1 °F 87% 29.70 in 10.0 mi West 8.1 mph - N/A   Clear
4:49 AM 62.6 °F 55.4 °F 77% 29.73 in 10.0 mi WNW 11.5 mph - N/A   Mostly Cloudy
4:56 AM 62.6 °F 48.2 °F 59% 29.73 in 10.0 mi WNW 13.8 mph 18.4 mph N/A   Scattered Clouds
4:58 AM 63.0 °F 48.0 °F 58% 29.73 in 10.0 mi WNW 13.8 mph 18.4 mph N/A   Scattered Clouds
5:58 AM 57.0 °F 39.9 °F 53% 29.77 in 10.0 mi WNW 9.2 mph - N/A   Clear
6:58 AM 55.0 °F 41.0 °F 59% 29.81 in 10.0 mi West 4.6 mph - N/A   Clear
7:58 AM 53.1 °F 41.0 °F 64% 29.84 in 10.0 mi West 5.8 mph - N/A   Clear
8:58 AM 54.0 °F 39.0 °F 57% 29.88 in 10.0 mi NW 10.4 mph 19.6 mph N/A   Clear
9:58 AM 54.0 °F 35.1 °F 49% 29.90 in 10.0 mi WNW 17.3 mph 25.3 mph N/A   Clear
10:58 AM 55.0 °F 34.0 °F 45% 29.91 in 10.0 mi West 12.7 mph 19.6 mph N/A   Clear
11:58 AM 57.9 °F 32.0 °F 37% 29.91 in 10.0 mi West 17.3 mph 26.5 mph N/A   Clear
12:58 PM 62.1 °F 30.0 °F 30% 29.91 in 10.0 mi West 15.0 mph 21.9 mph N/A   Clear
1:58 PM 64.0 °F 27.0 °F 25% 29.89 in 10.0 mi West 15.0 mph 21.9 mph N/A   Clear
2:58 PM 64.9 °F 28.0 °F 25% 29.88 in 10.0 mi WNW 13.8 mph 24.2 mph N/A   Clear
3:58 PM 66.0 °F 21.9 °F 19% 29.86 in 10.0 mi WNW 16.1 mph 26.5 mph N/A   Clear
4:58 PM 66.9 °F 24.1 °F 20% 29.86 in 10.0 mi WNW 15.0 mph 24.2 mph N/A   Clear
5:58 PM 66.0 °F 23.0 °F 20% 29.87 in 10.0 mi WNW 16.1 mph 24.2 mph N/A   Clear
6:58 PM 64.0 °F 21.9 °F 20% 29.90 in 10.0 mi WNW 9.2 mph 17.3 mph N/A   Clear
7:58 PM 59.0 °F 25.0 °F 27% 29.94 in 10.0 mi West 4.6 mph - N/A   Clear
8:58 PM 57.0 °F 23.0 °F 27% 29.97 in 10.0 mi WNW 10.4 mph - N/A   Clear
9:58 PM 55.9 °F 23.0 °F 28% 30.00 in 10.0 mi NW 10.4 mph - N/A   Clear
10:58 PM 54.0 °F 25.0 °F 33% 30.04 in 10.0 mi WNW 6.9 mph - N/A   Clear
11:58 PM 53.1 °F 24.1 °F 32% 30.05 in 10.0 mi WNW 9.2 mph - N/A   Clear